owner,sensor,date,latitude,longitude,vertical_datum,sea_water_temperature,qcFlag
Shell,ioos:station:wmo:42882:1,2021-07-01T00:07:00Z,28.1779,-89.1151,10.0,28.3,11111222
Shell,ioos:station:wmo:42882:1,2021-07-01T00:17:00Z,28.1779,-89.1151,10.0,28.3,11111222
Shell,ioos:station:wmo:42882:1,2021-07-01T00:26:00Z,28.1779,-89.1151,10.0,28.3,11111222
Shell,ioos:station:wmo:42882:1,2021-07-01T00:36:00Z,28.1779,-89.1151,10.0,28.3,11111222
Shell,ioos:station:wmo:42882:1,2021-07-01T00:47:00Z,28.1779,-89.1151,10.0,28.3,11111222
Shell,ioos:station:wmo:42882:1,2021-07-01T00:56:00Z,28.1779,-89.1151,10.0,28.3,11111222
Shell,ioos:station:wmo:42882:1,2021-07-01T01:06:00Z,28.1779,-89.1151,10.0,28.3,11111222
Shell,ioos:station:wmo:42882:1,2021-07-01T01:16:00Z,28.1779,-89.1151,10.0,28.3,11111222
Shell,ioos:station:wmo:42882:1,2021-07-01T01:26:00Z,28.1779,-89.1151,10.0,28.3,11111222
Shell,ioos:station:wmo:42882:1,2021-07-01T01:37:00Z,28.1779,-89.1151,10.0,28.3,11111222
Shell,ioos:station:wmo:42882:1,2021-07-01T01:46:00Z,28.1779,-89.1151,10.0,28.3,11111222
Shell,ioos:station:wmo:42882:1,2021-07-01T01:56:00Z,28.1779,-89.1151,10.0,28.3,11111222
Shell,ioos:station:wmo:42882:1,2021-07-01T02:06:00Z,28.1779,-89.1151,10.0,28.3,11111222
Shell,ioos:station:wmo:42882:1,2021-07-01T02:16:00Z,28.1779,-89.1151,10.0,28.3,11111222
Shell,ioos:station:wmo:42882:1,2021-07-01T02:27:00Z,28.1779,-89.1151,10.0,28.2,11111222
Shell,ioos:station:wmo:42882:1,2021-07-01T02:36:00Z,28.1779,-89.1151,10.0,28.2,11111222
Shell,ioos:station:wmo:42882:1,2021-07-01T02:46:00Z,28.1779,-89.1151,10.0,28.2,11111222
Shell,ioos:station:wmo:42882:1,2021-07-01T02:57:00Z,28.1779,-89.1151,10.0,28.2,11111222
Shell,ioos:station:wmo:42882:1,2021-07-01T03:06:00Z,28.1779,-89.1151,10.0,28.2,11111222
Shell,ioos:station:wmo:42882:1,2021-07-01T03:16:00Z,28.1779,-89.1151,10.0,28.2,11111222
Shell,ioos:station:wmo:42882:1,2021-07-01T03:27:00Z,28.1779,-89.1151,10.0,28.2,11111222
Shell,ioos:station:wmo:42882:1,2021-07-01T03:36:00Z,28.1779,-89.1151,10.0,28.2,11111222
Shell,ioos:station:wmo:42882:1,2021-07-01T03:46:00Z,28.1779,-89.1151,10.0,28.2,11111222
Shell,ioos:station:wmo:42882:1,2021-07-01T03:57:00Z,28.1779,-89.1151,10.0,28.2,11111222
Shell,ioos:station:wmo:42882:1,2021-07-01T04:06:00Z,28.1779,-89.1151,10.0,28.2,11111222
Shell,ioos:station:wmo:42882:1,2021-07-01T04:16:00Z,28.1779,-89.1151,10.0,28.2,11111222
Shell,ioos:station:wmo:42882:1,2021-07-01T04:26:00Z,28.1779,-89.1151,10.0,28.2,11111222
Shell,ioos:station:wmo:42882:1,2021-07-01T04:36:00Z,28.1779,-89.1151,10.0,28.2,11111222
Shell,ioos:station:wmo:42882:1,2021-07-01T04:46:00Z,28.1779,-89.1151,10.0,28.2,11111222
Shell,ioos:station:wmo:42882:1,2021-07-01T04:56:00Z,28.1779,-89.1151,10.0,28.2,11111222
Shell,ioos:station:wmo:42882:1,2021-07-01T05:06:00Z,28.1779,-89.1151,10.0,28.2,11111222
Shell,ioos:station:wmo:42882:1,2021-07-01T05:16:00Z,28.1779,-89.1151,10.0,28.2,11111222
Shell,ioos:station:wmo:42882:1,2021-07-01T05:26:00Z,28.1779,-89.1151,10.0,28.2,11111222
Shell,ioos:station:wmo:42882:1,2021-07-01T05:37:00Z,28.1779,-89.1151,10.0,28.2,11111222
Shell,ioos:station:wmo:42882:1,2021-07-01T05:46:00Z,28.1779,-89.1151,10.0,28.2,11111222
Shell,ioos:station:wmo:42882:1,2021-07-01T05:56:00Z,28.1779,-89.1151,10.0,28.2,11111222
Shell,ioos:station:wmo:42882:1,2021-07-01T06:06:00Z,28.1779,-89.1151,10.0,28.2,11111222
Shell,ioos:station:wmo:42882:1,2021-07-01T06:16:00Z,28.1779,-89.1151,10.0,28.2,11111222
Shell,ioos:station:wmo:42882:1,2021-07-01T06:26:00Z,28.1779,-89.1151,10.0,28.2,11111222
Shell,ioos:station:wmo:42882:1,2021-07-01T06:36:00Z,28.1779,-89.1151,10.0,28.2,11111222
Shell,ioos:station:wmo:42882:1,2021-07-01T06:46:00Z,28.1779,-89.1151,10.0,28.2,11111222
Shell,ioos:station:wmo:42882:1,2021-07-01T06:57:00Z,28.1779,-89.1151,10.0,28.2,11111222
Shell,ioos:station:wmo:42882:1,2021-07-01T07:06:00Z,28.1779,-89.1151,10.0,28.2,11111222
Shell,ioos:station:wmo:42882:1,2021-07-01T07:16:00Z,28.1779,-89.1151,10.0,28.2,11111222
Shell,ioos:station:wmo:42882:1,2021-07-01T07:26:00Z,28.1779,-89.1151,10.0,28.2,11111222
Shell,ioos:station:wmo:42882:1,2021-07-01T07:36:00Z,28.1779,-89.1151,10.0,28.2,11111222
Shell,ioos:station:wmo:42882:1,2021-07-01T07:46:00Z,28.1779,-89.1151,10.0,28.2,11111222
Shell,ioos:station:wmo:42882:1,2021-07-01T07:57:00Z,28.1779,-89.1151,10.0,28.2,11111222
Shell,ioos:station:wmo:42882:1,2021-07-01T08:06:00Z,28.1779,-89.1151,10.0,28.2,11111222
Shell,ioos:station:wmo:42882:1,2021-07-01T08:16:00Z,28.1779,-89.1150,10.0,28.2,11111222
Shell,ioos:station:wmo:42882:1,2021-07-01T08:26:00Z,28.1779,-89.1149,10.0,28.2,11111222
Shell,ioos:station:wmo:42882:1,2021-07-01T08:36:00Z,28.1779,-89.1149,10.0,28.2,11111222
Shell,ioos:station:wmo:42882:1,2021-07-01T08:46:00Z,28.1779,-89.1150,10.0,28.2,11111222
Shell,ioos:station:wmo:42882:1,2021-07-01T08:56:00Z,28.1779,-89.1152,10.0,28.2,11111222
Shell,ioos:station:wmo:42882:1,2021-07-01T09:06:00Z,28.1779,-89.1152,10.0,28.2,11111222
Shell,ioos:station:wmo:42882:1,2021-07-01T09:16:00Z,28.1779,-89.1152,10.0,28.2,11111222
Shell,ioos:station:wmo:42882:1,2021-07-01T09:26:00Z,28.1779,-89.1152,10.0,28.2,11111222
Shell,ioos:station:wmo:42882:1,2021-07-01T09:36:00Z,28.1779,-89.1152,10.0,28.2,11111222
Shell,ioos:station:wmo:42882:1,2021-07-01T09:46:00Z,28.1779,-89.1152,10.0,28.2,11111222
Shell,ioos:station:wmo:42882:1,2021-07-01T09:56:00Z,28.1779,-89.1152,10.0,28.2,11111222
Shell,ioos:station:wmo:42882:1,2021-07-01T10:06:00Z,28.1779,-89.1152,10.0,28.2,11111222
Shell,ioos:station:wmo:42882:1,2021-07-01T10:16:00Z,28.1779,-89.1152,10.0,28.2,11111222
Shell,ioos:station:wmo:42882:1,2021-07-01T10:26:00Z,28.1779,-89.1152,10.0,28.2,11111222
Shell,ioos:station:wmo:42882:1,2021-07-01T10:36:00Z,28.1779,-89.1152,10.0,28.2,11111222
Shell,ioos:station:wmo:42882:1,2021-07-01T10:46:00Z,28.1779,-89.1152,10.0,28.2,11111222
Shell,ioos:station:wmo:42882:1,2021-07-01T10:56:00Z,28.1779,-89.1152,10.0,28.2,11111222
Shell,ioos:station:wmo:42882:1,2021-07-01T11:06:00Z,28.1779,-89.1152,10.0,28.2,11111222
Shell,ioos:station:wmo:42882:1,2021-07-01T11:16:00Z,28.1779,-89.1152,10.0,28.2,11111222
Shell,ioos:station:wmo:42882:1,2021-07-01T11:26:00Z,28.1779,-89.1152,10.0,28.2,11111222
Shell,ioos:station:wmo:42882:1,2021-07-01T11:36:00Z,28.1779,-89.1152,10.0,28.2,11111222
Shell,ioos:station:wmo:42882:1,2021-07-01T11:46:00Z,28.1779,-89.1152,10.0,28.2,11111222
Shell,ioos:station:wmo:42882:1,2021-07-01T11:57:00Z,28.1779,-89.1152,10.0,28.2,11111222
Shell,ioos:station:wmo:42882:1,2021-07-01T12:06:00Z,28.1779,-89.1152,10.0,28.2,11111222
Shell,ioos:station:wmo:42882:1,2021-07-01T12:16:00Z,28.1779,-89.1152,10.0,28.2,11111222
Shell,ioos:station:wmo:42882:1,2021-07-01T12:26:00Z,28.1779,-89.1152,10.0,28.2,11111222
Shell,ioos:station:wmo:42882:1,2021-07-01T12:36:00Z,28.1779,-89.1152,10.0,28.2,11111222
Shell,ioos:station:wmo:42882:1,2021-07-01T12:46:00Z,28.1779,-89.1152,10.0,28.2,11111222
Shell,ioos:station:wmo:42882:1,2021-07-01T12:56:00Z,28.1779,-89.1150,10.0,28.2,11111222
Shell,ioos:station:wmo:42882:1,2021-07-01T13:06:00Z,28.1779,-89.1150,10.0,28.2,11111222
Shell,ioos:station:wmo:42882:1,2021-07-01T13:16:00Z,28.1779,-89.1150,10.0,28.2,11111222
Shell,ioos:station:wmo:42882:1,2021-07-01T13:26:00Z,28.1779,-89.1150,10.0,28.2,11111222
Shell,ioos:station:wmo:42882:1,2021-07-01T13:36:00Z,28.1779,-89.1150,10.0,28.1,11111222
Shell,ioos:station:wmo:42882:1,2021-07-01T13:47:00Z,28.1779,-89.1150,10.0,28.2,11111222
Shell,ioos:station:wmo:42882:1,2021-07-01T13:56:00Z,28.1779,-89.1150,10.0,28.2,11111222
Shell,ioos:station:wmo:42882:1,2021-07-01T14:07:00Z,28.1779,-89.1150,10.0,28.2,11111222
Shell,ioos:station:wmo:42882:1,2021-07-01T14:16:00Z,28.1779,-89.1150,10.0,28.2,11111222
Shell,ioos:station:wmo:42882:1,2021-07-01T14:26:00Z,28.1779,-89.1150,10.0,28.1,11111222
Shell,ioos:station:wmo:42882:1,2021-07-01T14:36:00Z,28.1779,-89.1150,10.0,28.1,11111222
Shell,ioos:station:wmo:42882:1,2021-07-01T14:46:00Z,28.1779,-89.1150,10.0,28.2,11111222
Shell,ioos:station:wmo:42882:1,2021-07-01T14:56:00Z,28.1779,-89.1150,10.0,28.2,11111222
Shell,ioos:station:wmo:42882:1,2021-07-01T15:06:00Z,28.1779,-89.1150,10.0,28.1,11111222
Shell,ioos:station:wmo:42882:1,2021-07-01T15:16:00Z,28.1779,-89.1150,10.0,28.1,11111222
Shell,ioos:station:wmo:42882:1,2021-07-01T15:27:00Z,28.1779,-89.1150,10.0,28.1,11111222
Shell,ioos:station:wmo:42882:1,2021-07-01T15:36:00Z,28.1779,-89.1150,10.0,28.1,11111222
Shell,ioos:station:wmo:42882:1,2021-07-01T15:46:00Z,28.1779,-89.1150,10.0,28.1,11111222
Shell,ioos:station:wmo:42882:1,2021-07-01T15:56:00Z,28.1779,-89.1150,10.0,28.1,11111222
Shell,ioos:station:wmo:42882:1,2021-07-01T16:06:00Z,28.1779,-89.1150,10.0,28.2,11111222
Shell,ioos:station:wmo:42882:1,2021-07-01T16:16:00Z,28.1779,-89.1150,10.0,28.2,11111222
Shell,ioos:station:wmo:42882:1,2021-07-01T16:26:00Z,28.1779,-89.1150,10.0,28.2,11111222
Shell,ioos:station:wmo:42882:1,2021-07-01T16:36:00Z,28.1780,-89.1152,10.0,28.2,11111222
Shell,ioos:station:wmo:42882:1,2021-07-01T16:46:00Z,28.1779,-89.1152,10.0,28.2,11111222
Shell,ioos:station:wmo:42882:1,2021-07-01T16:56:00Z,28.1779,-89.1152,10.0,28.2,11111222
Shell,ioos:station:wmo:42882:1,2021-07-01T17:06:00Z,28.1779,-89.1152,10.0,28.2,11111222
Shell,ioos:station:wmo:42882:1,2021-07-01T17:16:00Z,28.1779,-89.1152,10.0,28.2,11111222
Shell,ioos:station:wmo:42882:1,2021-07-01T17:26:00Z,28.1779,-89.1152,10.0,28.2,11111222
Shell,ioos:station:wmo:42882:1,2021-07-01T17:36:00Z,28.1779,-89.1152,10.0,28.2,11111222
Shell,ioos:station:wmo:42882:1,2021-07-01T17:46:00Z,28.1779,-89.1152,10.0,28.2,11111222
Shell,ioos:station:wmo:42882:1,2021-07-01T17:56:00Z,28.1779,-89.1152,10.0,28.2,11111222
Shell,ioos:station:wmo:42882:1,2021-07-01T18:06:00Z,28.1779,-89.1152,10.0,28.2,11111222
Shell,ioos:station:wmo:42882:1,2021-07-01T18:16:00Z,28.1779,-89.1152,10.0,28.2,11111222
Shell,ioos:station:wmo:42882:1,2021-07-01T18:26:00Z,28.1779,-89.1152,10.0,28.2,11111222
Shell,ioos:station:wmo:42882:1,2021-07-01T18:36:00Z,28.1779,-89.1152,10.0,28.2,11111222
Shell,ioos:station:wmo:42882:1,2021-07-01T18:46:00Z,28.1779,-89.1152,10.0,28.2,11111222
Shell,ioos:station:wmo:42882:1,2021-07-01T18:56:00Z,28.1779,-89.1152,10.0,28.2,11111222
Shell,ioos:station:wmo:42882:1,2021-07-01T19:06:00Z,28.1779,-89.1152,10.0,28.2,11111222
Shell,ioos:station:wmo:42882:1,2021-07-01T19:16:00Z,28.1779,-89.1152,10.0,28.2,11111222
Shell,ioos:station:wmo:42882:1,2021-07-01T19:26:00Z,28.1779,-89.1152,10.0,28.2,11111222
Shell,ioos:station:wmo:42882:1,2021-07-01T19:36:00Z,28.1779,-89.1152,10.0,28.2,11111222
Shell,ioos:station:wmo:42882:1,2021-07-01T19:46:00Z,28.1779,-89.1152,10.0,28.2,11111222
Shell,ioos:station:wmo:42882:1,2021-07-01T19:57:00Z,28.1779,-89.1152,10.0,28.2,11111222
Shell,ioos:station:wmo:42882:1,2021-07-01T20:07:00Z,28.1779,-89.1152,10.0,28.2,11111222
Shell,ioos:station:wmo:42882:1,2021-07-01T20:17:00Z,28.1779,-89.1152,10.0,28.2,11111222
Shell,ioos:station:wmo:42882:1,2021-07-01T20:27:00Z,28.1779,-89.1152,10.0,28.2,11111222
Shell,ioos:station:wmo:42882:1,2021-07-01T20:36:00Z,28.1779,-89.1152,10.0,28.2,11111222
Shell,ioos:station:wmo:42882:1,2021-07-01T20:46:00Z,28.1779,-89.1152,10.0,28.2,11111222
Shell,ioos:station:wmo:42882:1,2021-07-01T20:57:00Z,28.1779,-89.1152,10.0,28.2,11111222
Shell,ioos:station:wmo:42882:1,2021-07-01T21:07:00Z,28.1779,-89.1152,10.0,28.2,11111222
Shell,ioos:station:wmo:42882:1,2021-07-01T21:16:00Z,28.1779,-89.1152,10.0,28.2,11111222
Shell,ioos:station:wmo:42882:1,2021-07-01T21:26:00Z,28.1779,-89.1152,10.0,28.2,11111222
Shell,ioos:station:wmo:42882:1,2021-07-01T21:36:00Z,28.1779,-89.1152,10.0,28.2,11111222
Shell,ioos:station:wmo:42882:1,2021-07-01T21:46:00Z,28.1779,-89.1152,10.0,28.2,11111222
Shell,ioos:station:wmo:42882:1,2021-07-01T21:56:00Z,28.1779,-89.1152,10.0,28.2,11111222
Shell,ioos:station:wmo:42882:1,2021-07-01T22:06:00Z,28.1779,-89.1152,10.0,28.2,11111222
Shell,ioos:station:wmo:42882:1,2021-07-01T22:17:00Z,28.1779,-89.1152,10.0,28.2,11111222
Shell,ioos:station:wmo:42882:1,2021-07-01T22:27:00Z,28.1779,-89.1152,10.0,28.2,11111222
Shell,ioos:station:wmo:42882:1,2021-07-01T22:36:00Z,28.1779,-89.1152,10.0,28.2,11111222
Shell,ioos:station:wmo:42882:1,2021-07-01T22:47:00Z,28.1779,-89.1152,10.0,28.2,11111222
Shell,ioos:station:wmo:42882:1,2021-07-01T22:57:00Z,28.1779,-89.1152,10.0,28.2,11111222
Shell,ioos:station:wmo:42882:1,2021-07-01T23:06:00Z,28.1779,-89.1152,10.0,28.2,11111222
Shell,ioos:station:wmo:42882:1,2021-07-01T23:16:00Z,28.1779,-89.1152,10.0,28.2,11111222
Shell,ioos:station:wmo:42882:1,2021-07-01T23:26:00Z,28.1779,-89.1152,10.0,28.2,11111222
Shell,ioos:station:wmo:42882:1,2021-07-01T23:36:00Z,28.1779,-89.1152,10.0,28.3,11111222
Shell,ioos:station:wmo:42882:1,2021-07-01T23:46:00Z,28.1779,-89.1152,10.0,28.3,11111222
Shell,ioos:station:wmo:42882:1,2021-07-01T23:56:00Z,28.1779,-89.1152,10.0,28.3,11111222
Shell,ioos:station:wmo:42882:1,2021-07-02T00:06:00Z,28.1779,-89.1152,10.0,28.3,11111222
Shell,ioos:station:wmo:42882:1,2021-07-02T00:16:00Z,28.1780,-89.1153,10.0,28.3,11111222
Shell,ioos:station:wmo:42882:1,2021-07-02T00:26:00Z,28.1780,-89.1153,10.0,28.3,11111222
Shell,ioos:station:wmo:42882:1,2021-07-02T00:36:00Z,28.1780,-89.1153,10.0,28.3,11111222
Shell,ioos:station:wmo:42882:1,2021-07-02T00:46:00Z,28.1780,-89.1153,10.0,28.3,11111222
Shell,ioos:station:wmo:42882:1,2021-07-02T00:56:00Z,28.1780,-89.1153,10.0,28.3,11111222
Shell,ioos:station:wmo:42882:1,2021-07-02T01:06:00Z,28.1780,-89.1153,10.0,28.3,11111222
Shell,ioos:station:wmo:42882:1,2021-07-02T01:16:00Z,28.1780,-89.1153,10.0,28.3,11111222
Shell,ioos:station:wmo:42882:1,2021-07-02T01:26:00Z,28.1780,-89.1153,10.0,28.3,11111222
Shell,ioos:station:wmo:42882:1,2021-07-02T01:36:00Z,28.1780,-89.1153,10.0,28.3,11111222
Shell,ioos:station:wmo:42882:1,2021-07-02T01:46:00Z,28.1780,-89.1153,10.0,28.3,11111222
Shell,ioos:station:wmo:42882:1,2021-07-02T01:56:00Z,28.1780,-89.1153,10.0,28.3,11111222
Shell,ioos:station:wmo:42882:1,2021-07-02T02:06:00Z,28.1780,-89.1153,10.0,28.3,11111222
Shell,ioos:station:wmo:42882:1,2021-07-02T02:16:00Z,28.1780,-89.1153,10.0,28.3,11111222
Shell,ioos:station:wmo:42882:1,2021-07-02T02:26:00Z,28.1780,-89.1153,10.0,28.3,11111222
Shell,ioos:station:wmo:42882:1,2021-07-02T02:36:00Z,28.1780,-89.1153,10.0,28.3,11111222
Shell,ioos:station:wmo:42882:1,2021-07-02T02:46:00Z,28.1780,-89.1153,10.0,28.3,11111222
Shell,ioos:station:wmo:42882:1,2021-07-02T02:56:00Z,28.1780,-89.1153,10.0,28.3,11111222
Shell,ioos:station:wmo:42882:1,2021-07-02T03:06:00Z,28.1780,-89.1153,10.0,28.3,11111222
Shell,ioos:station:wmo:42882:1,2021-07-02T03:16:00Z,28.1780,-89.1153,10.0,28.3,11111222
Shell,ioos:station:wmo:42882:1,2021-07-02T03:26:00Z,28.1780,-89.1153,10.0,28.3,11111222
Shell,ioos:station:wmo:42882:1,2021-07-02T03:36:00Z,28.1780,-89.1153,10.0,28.2,11111222
Shell,ioos:station:wmo:42882:1,2021-07-02T03:46:00Z,28.1780,-89.1153,10.0,28.2,11111222
Shell,ioos:station:wmo:42882:1,2021-07-02T03:56:00Z,28.1780,-89.1153,10.0,28.3,11111222
Shell,ioos:station:wmo:42882:1,2021-07-02T04:06:00Z,28.1780,-89.1153,10.0,28.3,11111222
Shell,ioos:station:wmo:42882:1,2021-07-02T04:16:00Z,28.1780,-89.1153,10.0,28.3,11111222
Shell,ioos:station:wmo:42882:1,2021-07-02T04:26:00Z,28.1780,-89.1153,10.0,28.3,11111222
Shell,ioos:station:wmo:42882:1,2021-07-02T04:37:00Z,28.1780,-89.1153,10.0,28.3,11111222
Shell,ioos:station:wmo:42882:1,2021-07-02T04:46:00Z,28.1780,-89.1153,10.0,28.3,11111222
Shell,ioos:station:wmo:42882:1,2021-07-02T04:56:00Z,28.1780,-89.1153,10.0,28.3,11111222
Shell,ioos:station:wmo:42882:1,2021-07-02T05:06:00Z,28.1780,-89.1153,10.0,28.3,11111222
Shell,ioos:station:wmo:42882:1,2021-07-02T05:16:00Z,28.1780,-89.1153,10.0,28.3,11111222
Shell,ioos:station:wmo:42882:1,2021-07-02T05:26:00Z,28.1780,-89.1153,10.0,28.3,11111222
Shell,ioos:station:wmo:42882:1,2021-07-02T05:36:00Z,28.1780,-89.1153,10.0,28.3,11111222
Shell,ioos:station:wmo:42882:1,2021-07-02T05:46:00Z,28.1780,-89.1153,10.0,28.3,11111222
Shell,ioos:station:wmo:42882:1,2021-07-02T05:56:00Z,28.1780,-89.1153,10.0,28.3,11111222
Shell,ioos:station:wmo:42882:1,2021-07-02T06:06:00Z,28.1780,-89.1153,10.0,28.2,11111222
Shell,ioos:station:wmo:42882:1,2021-07-02T06:16:00Z,28.1780,-89.1153,10.0,28.2,11111222
Shell,ioos:station:wmo:42882:1,2021-07-02T06:27:00Z,28.1780,-89.1153,10.0,28.2,11111222
Shell,ioos:station:wmo:42882:1,2021-07-02T06:36:00Z,28.1780,-89.1153,10.0,28.2,11111222
Shell,ioos:station:wmo:42882:1,2021-07-02T06:46:00Z,28.1780,-89.1153,10.0,28.1,11111222
Shell,ioos:station:wmo:42882:1,2021-07-02T06:56:00Z,28.1780,-89.1153,10.0,28.1,11111222
Shell,ioos:station:wmo:42882:1,2021-07-02T07:06:00Z,28.1780,-89.1153,10.0,28.0,11111222
Shell,ioos:station:wmo:42882:1,2021-07-02T07:16:00Z,28.1780,-89.1153,10.0,28.1,11111222
Shell,ioos:station:wmo:42882:1,2021-07-02T07:26:00Z,28.1780,-89.1153,10.0,28.1,11111222
Shell,ioos:station:wmo:42882:1,2021-07-02T07:36:00Z,28.1780,-89.1153,10.0,27.9,11111222
Shell,ioos:station:wmo:42882:1,2021-07-02T07:46:00Z,28.1780,-89.1153,10.0,27.8,11111222
Shell,ioos:station:wmo:42882:1,2021-07-02T07:56:00Z,28.1780,-89.1153,10.0,27.7,11111222
Shell,ioos:station:wmo:42882:1,2021-07-02T08:06:00Z,28.1780,-89.1153,10.0,27.7,11111222
Shell,ioos:station:wmo:42882:1,2021-07-02T08:16:00Z,28.1780,-89.1153,10.0,27.7,11111222
Shell,ioos:station:wmo:42882:1,2021-07-02T08:26:00Z,28.1780,-89.1153,10.0,27.8,11111222
Shell,ioos:station:wmo:42882:1,2021-07-02T08:36:00Z,28.1780,-89.1153,10.0,27.8,11111222
Shell,ioos:station:wmo:42882:1,2021-07-02T08:46:00Z,28.1780,-89.1153,10.0,27.6,11111222
Shell,ioos:station:wmo:42882:1,2021-07-02T08:56:00Z,28.1780,-89.1153,10.0,27.5,11111222
Shell,ioos:station:wmo:42882:1,2021-07-02T09:06:00Z,28.1780,-89.1153,10.0,27.4,11111222
Shell,ioos:station:wmo:42882:1,2021-07-02T09:16:00Z,28.1780,-89.1153,10.0,27.6,11111222
Shell,ioos:station:wmo:42882:1,2021-07-02T09:26:00Z,28.1780,-89.1153,10.0,27.8,11111222
Shell,ioos:station:wmo:42882:1,2021-07-02T09:36:00Z,28.1780,-89.1153,10.0,27.8,11111222
Shell,ioos:station:wmo:42882:1,2021-07-02T09:46:00Z,28.1780,-89.1153,10.0,27.9,11111222
Shell,ioos:station:wmo:42882:1,2021-07-02T09:56:00Z,28.1780,-89.1153,10.0,28.1,11111222
Shell,ioos:station:wmo:42882:1,2021-07-02T10:06:00Z,28.1780,-89.1153,10.0,28.1,11111222
Shell,ioos:station:wmo:42882:1,2021-07-02T10:16:00Z,28.1780,-89.1153,10.0,28.0,11111222
Shell,ioos:station:wmo:42882:1,2021-07-02T10:26:00Z,28.1780,-89.1153,10.0,27.6,11111222
Shell,ioos:station:wmo:42882:1,2021-07-02T10:36:00Z,28.1780,-89.1153,10.0,27.8,11111222
Shell,ioos:station:wmo:42882:1,2021-07-02T10:46:00Z,28.1780,-89.1153,10.0,27.9,11111222
Shell,ioos:station:wmo:42882:1,2021-07-02T10:56:00Z,28.1780,-89.1153,10.0,28.1,11111222
Shell,ioos:station:wmo:42882:1,2021-07-02T11:06:00Z,28.1780,-89.1153,10.0,28.0,11111222
Shell,ioos:station:wmo:42882:1,2021-07-02T11:16:00Z,28.1780,-89.1153,10.0,28.0,11111222
Shell,ioos:station:wmo:42882:1,2021-07-02T11:26:00Z,28.1780,-89.1153,10.0,28.1,11111222
Shell,ioos:station:wmo:42882:1,2021-07-02T11:36:00Z,28.1780,-89.1153,10.0,28.1,11111222
Shell,ioos:station:wmo:42882:1,2021-07-02T11:46:00Z,28.1780,-89.1153,10.0,28.1,11111222
Shell,ioos:station:wmo:42882:1,2021-07-02T11:56:00Z,28.1780,-89.1153,10.0,28.2,11111222
Shell,ioos:station:wmo:42882:1,2021-07-02T12:06:00Z,28.1780,-89.1153,10.0,28.2,11111222
Shell,ioos:station:wmo:42882:1,2021-07-02T12:16:00Z,28.1780,-89.1153,10.0,28.2,11111222
Shell,ioos:station:wmo:42882:1,2021-07-02T12:26:00Z,28.1780,-89.1153,10.0,28.2,11111222
Shell,ioos:station:wmo:42882:1,2021-07-02T12:36:00Z,28.1780,-89.1153,10.0,28.2,11111222
Shell,ioos:station:wmo:42882:1,2021-07-02T12:46:00Z,28.1780,-89.1153,10.0,28.1,11111222
Shell,ioos:station:wmo:42882:1,2021-07-02T12:56:00Z,28.1780,-89.1153,10.0,28.1,11111222
Shell,ioos:station:wmo:42882:1,2021-07-02T13:06:00Z,28.1780,-89.1153,10.0,28.2,11111222
Shell,ioos:station:wmo:42882:1,2021-07-02T13:16:00Z,28.1780,-89.1153,10.0,28.1,11111222
Shell,ioos:station:wmo:42882:1,2021-07-02T13:26:00Z,28.1780,-89.1153,10.0,28.0,11111222
Shell,ioos:station:wmo:42882:1,2021-07-02T13:36:00Z,28.1780,-89.1153,10.0,28.0,11111222
Shell,ioos:station:wmo:42882:1,2021-07-02T13:46:00Z,28.1780,-89.1153,10.0,28.1,11111222
Shell,ioos:station:wmo:42882:1,2021-07-02T13:56:00Z,28.1780,-89.1153,10.0,28.1,11111222
Shell,ioos:station:wmo:42882:1,2021-07-02T14:06:00Z,28.1780,-89.1153,10.0,28.1,11111222
Shell,ioos:station:wmo:42882:1,2021-07-02T14:16:00Z,28.1782,-89.1155,10.0,27.9,11111222
Shell,ioos:station:wmo:42882:1,2021-07-02T14:26:00Z,28.1782,-89.1155,10.0,27.9,11111222
Shell,ioos:station:wmo:42882:1,2021-07-02T14:36:00Z,28.1782,-89.1155,10.0,27.8,11111222
Shell,ioos:station:wmo:42882:1,2021-07-02T14:46:00Z,28.1782,-89.1155,10.0,27.9,11111222
Shell,ioos:station:wmo:42882:1,2021-07-02T14:56:00Z,28.1782,-89.1155,10.0,27.8,11111222
Shell,ioos:station:wmo:42882:1,2021-07-02T15:06:00Z,28.1782,-89.1155,10.0,27.9,11111222
Shell,ioos:station:wmo:42882:1,2021-07-02T15:16:00Z,28.1782,-89.1155,10.0,27.9,11111222
Shell,ioos:station:wmo:42882:1,2021-07-02T15:26:00Z,28.1782,-89.1155,10.0,28.0,11111222
Shell,ioos:station:wmo:42882:1,2021-07-02T15:36:00Z,28.1782,-89.1155,10.0,28.0,11111222
Shell,ioos:station:wmo:42882:1,2021-07-02T15:46:00Z,28.1782,-89.1155,10.0,28.0,11111222
Shell,ioos:station:wmo:42882:1,2021-07-02T15:56:00Z,28.1782,-89.1155,10.0,27.9,11111222
Shell,ioos:station:wmo:42882:1,2021-07-02T16:06:00Z,28.1782,-89.1155,10.0,27.9,11111222
Shell,ioos:station:wmo:42882:1,2021-07-02T16:16:00Z,28.1782,-89.1155,10.0,27.8,11111222
Shell,ioos:station:wmo:42882:1,2021-07-02T16:26:00Z,28.1782,-89.1155,10.0,27.7,11111222
Shell,ioos:station:wmo:42882:1,2021-07-02T16:36:00Z,28.1782,-89.1155,10.0,27.6,11111222
Shell,ioos:station:wmo:42882:1,2021-07-02T16:46:00Z,28.1782,-89.1155,10.0,27.5,11111222
Shell,ioos:station:wmo:42882:1,2021-07-02T16:56:00Z,28.1782,-89.1155,10.0,27.5,11111222
Shell,ioos:station:wmo:42882:1,2021-07-02T17:06:00Z,28.1782,-89.1155,10.0,27.4,11111222
Shell,ioos:station:wmo:42882:1,2021-07-02T17:16:00Z,28.1782,-89.1155,10.0,27.2,11111222
Shell,ioos:station:wmo:42882:1,2021-07-02T17:26:00Z,28.1782,-89.1155,10.0,27.0,11111222
Shell,ioos:station:wmo:42882:1,2021-07-02T17:36:00Z,28.1782,-89.1155,10.0,26.9,11111222
Shell,ioos:station:wmo:42882:1,2021-07-02T17:46:00Z,28.1782,-89.1155,10.0,27.0,11111222
Shell,ioos:station:wmo:42882:1,2021-07-02T17:56:00Z,28.1782,-89.1155,10.0,27.0,11111222
Shell,ioos:station:wmo:42882:1,2021-07-02T18:06:00Z,28.1782,-89.1155,10.0,27.1,11111222
Shell,ioos:station:wmo:42882:1,2021-07-02T18:16:00Z,28.1782,-89.1155,10.0,27.2,11111222
Shell,ioos:station:wmo:42882:1,2021-07-02T18:26:00Z,28.1782,-89.1155,10.0,27.2,11111222
Shell,ioos:station:wmo:42882:1,2021-07-02T18:36:00Z,28.1782,-89.1155,10.0,27.4,11111222
Shell,ioos:station:wmo:42882:1,2021-07-02T18:46:00Z,28.1782,-89.1155,10.0,27.4,11111222
Shell,ioos:station:wmo:42882:1,2021-07-02T18:56:00Z,28.1782,-89.1155,10.0,27.3,11111222
Shell,ioos:station:wmo:42882:1,2021-07-02T19:06:00Z,28.1782,-89.1155,10.0,27.1,11111222
Shell,ioos:station:wmo:42882:1,2021-07-02T19:16:00Z,28.1782,-89.1155,10.0,27.1,11111222
Shell,ioos:station:wmo:42882:1,2021-07-02T19:26:00Z,28.1782,-89.1155,10.0,27.2,11111222
Shell,ioos:station:wmo:42882:1,2021-07-02T19:36:00Z,28.1782,-89.1155,10.0,27.5,11111222
Shell,ioos:station:wmo:42882:1,2021-07-02T19:46:00Z,28.1782,-89.1155,10.0,27.6,11111222
Shell,ioos:station:wmo:42882:1,2021-07-02T19:56:00Z,28.1782,-89.1155,10.0,27.5,11111222
Shell,ioos:station:wmo:42882:1,2021-07-02T20:06:00Z,28.1782,-89.1155,10.0,27.5,11111222
Shell,ioos:station:wmo:42882:1,2021-07-02T20:16:00Z,28.1782,-89.1155,10.0,27.6,11111222
Shell,ioos:station:wmo:42882:1,2021-07-02T20:26:00Z,28.1782,-89.1155,10.0,27.5,11111222
Shell,ioos:station:wmo:42882:1,2021-07-02T20:36:00Z,28.1782,-89.1155,10.0,27.3,11111222